Location: Fort Collins
(40.5850°N, 105.0840°W)
Time: 09:08:17
(UTC-07:00)

Cosmos 2297 Rocket - Visible Passes

Search period start: 31 January 2015 00:00
Search period end: 10 February 2015 00:00
Orbit: 839 x 844 km, 71.0° (Epoch: 30 January)

Date Brightness Start Highest point End Pass type
(mag) Time Alt. Az. Time Alt. Az. Time Alt. Az.
31 Jan 5.6 06:42:14 10° ESE 06:44:11 12° E 06:46:30 10° ENE visible
31 Jan 4.4 19:01:00 10° NW 19:05:40 26° WSW 19:10:11 10° SSW visible
01 Feb 5.8 06:27:39 10° ESE 06:29:11 11° E 06:31:05 10° ENE visible
01 Feb 4.4 18:45:54 10° NW 18:50:39 28° WSW 18:55:17 10° SSW visible
02 Feb 5.9 06:13:15 10° ESE 06:14:11 11° E 06:15:32 10° E visible
02 Feb 4.3 18:30:47 10° NW 18:35:38 29° WSW 18:40:22 10° SSW visible
03 Feb 4.3 18:15:41 10° NW 18:20:37 31° WSW 18:25:27 10° SSW visible
04 Feb 4.3 18:00:36 10° NW 18:05:36 33° WSW 18:10:31 10° SSW visible
05 Feb 4.2 17:45:30 10° NW 17:50:36 34° WSW 17:55:35 10° SSW visible
07 Feb 2.7 06:36:46 10° S 06:42:21 67° ESE 06:47:59 10° NNE visible
08 Feb 2.8 06:21:45 10° S 06:27:19 64° ESE 06:32:56 10° NNE visible
09 Feb 2.9 06:06:46 10° S 06:12:17 60° ESE 06:17:53 10° NNE visible
